Dyersburg, TN

8:58 PM CST on February 13, 2016 (GMT -0600)
Dyersburg Municipal

Weather History for KDYR - February, 2013

Change the Weather History Date:

Sunday, February 10, 2013

  Actual Average Record
Temperature  
Mean Temperature 52 °F -  
Max Temperature 57 °F 48 °F 69 °F (1999)
Min Temperature 46 °F 33 °F 8 °F (2011)
Degree Days  
Heating Degree Days 14    
Growing Degree Days 2 (Base 50)    
Moisture  
Dew Point 41 °F    
Average Humidity 65    
Maximum Humidity 77    
Minimum Humidity 47    
Precipitation  
Precipitation 0.49 in - - ()
Sea Level Pressure  
Sea Level Pressure 29.89 in    
Wind  
Wind Speed 11 mph (SSE)    
Max Wind Speed 24 mph    
Max Gust Speed 34 mph    
Visibility 10 miles    
Events Thunderstorm    
Averages and records for this station are not official NWS values.
T = Trace of Precipitation, MM = Missing Value Source: NWS Daily Summary

Daily Weather History Graph

Daily Weather History Graph

Search for Another Location

Airport or City:

Trip Planner

Search our weather history database for the weather conditions in past years. The results will help you decide how hot, cold, wet, or windy it might be!

Date:

Astronomy

Feb. 10, 2013 Rise Set
Actual Time 6:49 AM CST 5:34 PM CST
Civil Twilight 6:23 AM CST 6:00 PM CST
Nautical Twilight 5:53 AM CST 6:31 PM CST
Astronomical Twilight 5:23 AM CST 7:00 PM CST
Moon 6:42 AM CST (2/10) 6:21 PM CST (2/10)
Length of Visible Light 11h 37m
Length of Day
10h 44m
New Moon, 0% of the Moon is Illuminated
Feb 10
New Moon
Feb 17
First Quarter
Feb 25
Full
Mar 4
Last Quarter
Mar 11
New

Hourly Weather History & Observations

Time (CST) Temp. Windchill Dew Point Humidity Pressure Visibility Wind Dir Wind Speed Gust Speed Precip Events Conditions
12:15 AM 46.4 °F 43.5 °F 32.0 °F 57% 30.07 in 10.0 mi ESE 5.8 mph - N/A   Overcast
12:55 AM 46.4 °F 42.9 °F 32.0 °F 57% 30.05 in 10.0 mi SE 6.9 mph - N/A   Overcast
1:15 AM 48.2 °F - 33.8 °F 58% 30.04 in 10.0 mi SSE 8.1 mph 17.3 mph N/A Thunderstorm Overcast
1:35 AM 48.2 °F - 33.8 °F 58% 30.06 in 10.0 mi SSE 5.8 mph - 0.02 in   Overcast
1:56 AM 48.2 °F - 33.8 °F 58% 30.04 in 10.0 mi SE 9.2 mph - N/A   Mostly Cloudy
2:15 AM 48.2 °F - 33.8 °F 58% 30.03 in 10.0 mi SE 9.2 mph - N/A   Overcast
2:35 AM 48.2 °F - 33.8 °F 58% 30.02 in 10.0 mi SSE 9.2 mph - N/A   Mostly Cloudy
2:55 AM 50.0 °F - 33.8 °F 54% 30.01 in 10.0 mi SE 9.2 mph - N/A   Overcast
3:15 AM 51.8 °F - 33.8 °F 50% 30.01 in 10.0 mi SSE 8.1 mph - N/A   Overcast
3:35 AM 50.0 °F - 32.0 °F 50% 30.01 in 10.0 mi SSE 8.1 mph - N/A   Overcast
4:15 AM 50.0 °F - 33.8 °F 54% 29.98 in 10.0 mi SE 10.4 mph 16.1 mph N/A   Overcast
4:35 AM 50.0 °F - 33.8 °F 54% 29.96 in 10.0 mi SE 12.7 mph - N/A   Overcast
4:55 AM 50.0 °F - 33.8 °F 54% 29.96 in 10.0 mi SE 12.7 mph 19.6 mph N/A   Overcast
5:35 AM 51.8 °F - 33.8 °F 50% 29.96 in 10.0 mi SE 10.4 mph - N/A   Overcast
6:16 AM 51.8 °F - 33.8 °F 50% 29.96 in 10.0 mi SE 12.7 mph 18.4 mph N/A   Overcast
7:15 AM 53.6 °F - 33.8 °F 47% 29.95 in 10.0 mi SE 13.8 mph 21.9 mph N/A   Overcast
7:35 AM 53.6 °F - 33.8 °F 47% 29.93 in 10.0 mi SE 15.0 mph 24.2 mph N/A   Overcast
8:15 AM 51.8 °F - 35.6 °F 54% 29.90 in 10.0 mi SE 17.3 mph 23.0 mph N/A   Overcast
8:36 AM 53.6 °F - 35.6 °F 51% 29.90 in 10.0 mi SE 16.1 mph 23.0 mph N/A Thunderstorm Overcast
8:55 AM 51.8 °F - 35.6 °F 54% 29.89 in 10.0 mi SSE 18.4 mph 31.1 mph N/A Thunderstorm Thunderstorm
9:35 AM 50.0 °F - 37.4 °F 62% 29.90 in 7.0 mi SSE 16.1 mph 26.5 mph N/A Thunderstorm Thunderstorm
9:55 AM 48.2 °F - 39.2 °F 71% 29.90 in 10.0 mi SSE 15.0 mph 21.9 mph 0.14 in Thunderstorm Overcast
10:35 AM 48.2 °F - 39.2 °F 71% 29.95 in 10.0 mi South 9.2 mph 16.1 mph 0.11 in Thunderstorm Overcast
10:55 AM 48.2 °F - 39.2 °F 71% 29.94 in 9.0 mi South 16.1 mph 20.7 mph 0.17 in   Overcast
11:15 AM 48.2 °F - 41.0 °F 76% 29.93 in 9.0 mi South 11.5 mph 23.0 mph 0.07 in   Mostly Cloudy
11:35 AM 48.2 °F - 41.0 °F 76% 29.90 in 8.0 mi SSE 19.6 mph 26.5 mph 0.10 in   Overcast
11:55 AM 48.2 °F - 41.0 °F 76% 29.89 in 8.0 mi SSE 18.4 mph 31.1 mph 0.13 in   Overcast
12:16 PM 48.2 °F - 41.0 °F 76% 29.86 in 9.0 mi SSE 21.9 mph 32.2 mph 0.02 in   Overcast
12:35 PM 50.0 °F - 42.8 °F 76% 29.81 in 10.0 mi SSE 20.7 mph 33.4 mph 0.03 in   Mostly Cloudy
12:55 PM 50.0 °F - 42.8 °F 76% 29.75 in 10.0 mi SE 24.2 mph 34.5 mph 0.03 in   Overcast
1:35 PM 53.6 °F - 44.6 °F 72% 29.74 in 10.0 mi SSE 19.6 mph 26.5 mph N/A   Mostly Cloudy
1:55 PM 53.6 °F - 44.6 °F 72% 29.76 in 10.0 mi SSE 18.4 mph 28.8 mph N/A   Partly Cloudy
2:15 PM 53.6 °F - 44.6 °F 72% 29.76 in 10.0 mi SSE 16.1 mph 31.1 mph N/A   Clear
2:36 PM 55.4 °F - 44.6 °F 67% 29.78 in 10.0 mi SSE 17.3 mph 29.9 mph N/A   Clear
2:55 PM 55.4 °F - 44.6 °F 67% 29.79 in 10.0 mi SSE 15.0 mph 20.7 mph N/A   Partly Cloudy
3:15 PM 55.4 °F - 44.6 °F 67% 29.79 in 10.0 mi SSE 15.0 mph 25.3 mph N/A   Partly Cloudy
3:55 PM 55.4 °F - 44.6 °F 67% 29.77 in 10.0 mi SSE 17.3 mph 24.2 mph N/A   Partly Cloudy
4:15 PM 55.4 °F - 44.6 °F 67% 29.76 in 10.0 mi SSE 13.8 mph 25.3 mph N/A   Clear
4:35 PM 55.4 °F - 44.6 °F 67% 29.76 in 10.0 mi SSE 13.8 mph 21.9 mph N/A   Clear
4:55 PM 55.4 °F - 44.6 °F 67% 29.78 in 5.0 mi South 8.1 mph 19.6 mph N/A   Clear
5:15 PM 55.4 °F - 44.6 °F 67% 29.78 in 10.0 mi South 9.2 mph - N/A   Partly Cloudy
5:35 PM 55.4 °F - 44.6 °F 67% 29.80 in 10.0 mi South 4.6 mph - N/A   Mostly Cloudy
6:15 PM 55.4 °F - 46.4 °F 72% 29.81 in 10.0 mi SW 9.2 mph - N/A   Overcast
6:55 PM 57.2 °F - 46.4 °F 67% 29.82 in 10.0 mi SSW 8.1 mph - N/A   Overcast
7:16 PM 57.2 °F - 48.2 °F 72% 29.83 in 10.0 mi SW 9.2 mph 16.1 mph N/A   Overcast
7:35 PM 57.2 °F - 48.2 °F 72% 29.84 in 10.0 mi SW 11.5 mph 19.6 mph N/A   Overcast
7:55 PM 57.2 °F - 48.2 °F 72% 29.84 in 10.0 mi SSW 10.4 mph 17.3 mph N/A   Mostly Cloudy
8:35 PM 57.2 °F - 48.2 °F 72% 29.85 in 10.0 mi SW 10.4 mph - N/A   Clear
8:55 PM 57.2 °F - 48.2 °F 72% 29.86 in 10.0 mi SW 10.4 mph 16.1 mph N/A   Clear
9:15 PM 57.2 °F - 48.2 °F 72% 29.87 in 10.0 mi SSW 10.4 mph - N/A   Clear
9:36 PM 57.2 °F - 48.2 °F 72% 29.87 in 10.0 mi SW 10.4 mph 16.1 mph N/A   Clear
9:55 PM 57.2 °F - 48.2 °F 72% 29.88 in 10.0 mi SW 11.5 mph 17.3 mph N/A   Clear
10:15 PM 57.2 °F - 48.2 °F 72% 29.89 in 10.0 mi SW 13.8 mph 18.4 mph N/A   Clear
10:55 PM 57.2 °F - 48.2 °F 72% 29.91 in 10.0 mi WSW 15.0 mph - N/A   Clear
11:15 PM 55.4 °F - 48.2 °F 77% 29.92 in 10.0 mi SW 13.8 mph 21.9 mph N/A   Clear
11:35 PM 55.4 °F - 46.4 °F 72% 29.93 in 10.0 mi WSW 13.8 mph - N/A   Clear
11:55 PM 55.4 °F - 46.4 °F 72% 29.94 in 10.0 mi WSW 13.8 mph 18.4 mph N/A   Clear